FW9333 Weather Reports


Display with metric or nautical units.
time (UTC)temp
F
wind
direction
speed
MPH
gust
MPH
rain 1hr
in
rain 24hr
in
rain mn
in
humidity
%
barometer
mb
20260503173040 57 96 0.0 4.0 0.00 0.00 0.00 41 1017.4
20260503171559 57 45 2.0 12.0 0.00 0.00 0.00 44 1017.4
20260503081537 37 130 0.0 0.0 0.00 0.00 0.00 84 1017.2
20260503071524 39 130 0.0 0.0 0.00 0.00 0.00 81 1016.7
20260503054522 41 115 0.0 1.0 0.00 0.00 0.00 78 1016.6
20260503053016 41 113 0.0 0.0 0.00 0.00 0.00 79 1016.6
20260503051514 41 113 0.0 0.0 0.00 0.00 0.00 78 1016.6
20260503050014 41 113 0.0 2.0 0.00 0.00 0.00 78 1016.7
20260503044524 41 360 0.0 0.0 0.00 0.00 0.00 78 1016.8
20260503043021 41 317 0.0 0.0 0.00 0.00 0.00 78 1016.8
20260503041511 41 315 0.0 0.0 0.00 0.00 0.00 78 1016.8
20260503040011 41 315 0.0 0.0 0.00 0.00 0.00 77 1016.7
20260503034508 42 315 0.0 0.0 0.00 0.00 0.00 77 1016.8
20260503033008 42 315 0.0 0.0 0.00 0.00 0.00 77 1016.7
20260503031507 42 315 0.0 0.0 0.00 0.00 0.00 76 1016.7
20260503030008 42 315 0.0 0.0 0.00 0.00 0.00 76 1016.7
20260503024507 43 315 0.0 0.0 0.00 0.00 0.00 76 1016.7
20260503023006 43 315 0.0 1.0 0.00 0.00 0.00 75 1016.8
20260503021505 43 315 0.0 2.0 0.00 0.00 0.00 75 1016.8
20260503020007 43 295 0.0 2.0 0.00 0.00 0.00 75 1016.8
20260503014503 43 269 0.0 0.0 0.00 0.00 0.00 75 1016.8
20260503013002 43 269 0.0 2.0 0.00 0.00 0.00 75 1016.7
20260503011502 44 269 0.0 2.0 0.00 0.00 0.00 73 1016.6
20260503010100 44 267 0.0 0.0 0.00 0.00 0.00 75 1016.4
20260503004601 44 271 0.0 2.0 0.00 0.01 0.00 74 1016.2
20260503003058 44 335 0.0 3.0 0.00 0.01 0.00 73 1016.0
20260503001558 44 269 1.0 3.0 0.00 0.01 0.00 72 1015.8
20260503000107 45 329 0.0 2.0 0.00 0.01 0.00 72 1015.7
20260502234604 45 299 0.0 3.0 0.00 0.01 0.00 71 1015.6
20260502233058 46 18 0.0 5.0 0.00 0.01 0.00 68 1015.5
20260502231556 47 14 1.0 5.0 0.00 0.01 0.00 67 1015.3
20260502230056 48 5 0.0 3.0 0.00 0.01 0.00 69 1015.1
20260502224556 48 330 1.0 4.0 0.00 0.04 0.00 68 1015.0
20260502223055 48 312 0.0 4.0 0.00 0.04 0.00 66 1014.9
20260502221609 49 313 0.0 2.0 0.00 0.04 0.00 65 1014.8
20260502214554 50 332 2.0 5.0 0.00 0.04 0.00 59 1014.4
20260502213053 51 17 0.0 5.0 0.00 0.04 0.00 55 1014.3
20260502211553 51 11 0.0 4.0 0.00 0.04 0.00 57 1014.1
20260502210108 50 146 0.0 1.0 0.00 0.04 0.00 56 1014.0
20260502204552 50 311 0.0 1.0 0.00 0.04 0.00 59 1014.2
20260502203052 51 22 1.0 5.0 0.00 0.04 0.00 55 1014.1
20260502201552 51 208 0.0 6.0 0.00 0.04 0.00 52 1014.1
20260502200110 51 5 0.0 5.0 0.00 0.04 0.00 54 1014.2
20260502194549 51 320 0.0 3.0 0.00 0.04 0.00 56 1014.2
20260502193050 51 15 1.0 6.0 0.00 0.04 0.00 55 1014.4
20260502191556 51 22 1.0 9.0 0.00 0.04 0.00 53 1014.6
20260502190049 51 136 0.0 5.0 0.00 0.04 0.00 52 1014.6
20260502184545 51 23 1.0 7.0 0.00 0.04 0.00 54 1014.8
20260502183046 51 40 1.0 4.0 0.00 0.04 0.00 55 1014.7
20260502181543 51 119 0.0 4.0 0.00 0.04 0.00 51 1014.8